[[{"header":{"parameterUnit":"m.s-1","parameterCategory":1,"la1":30.2992,"la2":30.254,"lo1":-89.0895,"lo2":-89.0443,"dy":0.0025,"dx":0.0025,"nx":19,"ny":19,"refTime":"2026-03-08T09:00:00:Z","depth":0,"parameterNumber":2,"parameterNumberName":"U-component_of_WINDS"},"data":[0,0,0,1.9634,1.9634,1.9614,1.9614,1.9596,1.9596,0,0,0,0,0,0,0,0,0,0,0,1.9646,1.9646,1.9634,1.9634,1.9614,1.9614,1.9596,1.9596,0,0,0,0,0,0,0,0,0,0,0,1.9646,1.9646,1.9646,1.9634,1.9614,1.9614,1.9596,1.9608,0,0,0,0,0,0,0,0,0,0,1.9626,1.9642,1.9646,1.9646,1.9634,1.9614,1.9614,1.9609,1.9608,1.9609,0,1.9612,0,1.9604,1.9595,1.9595,0,0,0,1.963,1.9643,1.9633,1.9646,1.9634,1.9614,1.9622,1.9608,1.9607,1.9607,1.9612,1.9611,1.9604,1.9595,1.9595,1.9619,1.9619,0,0,1.9631,1.9645,1.9634,1.9633,1.9637,1.9623,1.9621,1.9607,1.9612,1.9612,1.961,1.9603,1.9595,1.9595,1.9619,1.9619,0,0,0,1.9637,1.9646,1.9636,1.9634,1.9629,1.9622,1.9621,1.9613,1.9609,1.961,1.9603,1.9595,1.9595,1.9618,1.9619,1.9649,0,0,0,1.9637,1.9649,1.9636,1.9645,1.963,1.9621,1.9627,1.961,1.9608,1.9603,1.9595,1.9595,1.9618,1.9619,1.9647,1.9661,0,0,0,1.9645,1.965,1.9649,1.9646,1.9638,1.9621,1.9616,1.9609,1.9604,1.9595,1.9595,1.9618,1.9619,1.9646,1.9658,1.9671,0,0,0,1.9657,1.9675,1.965,1.9667,1.9638,1.964,1.9616,1.9616,1.9613,1.9595,1.9618,1.9619,1.9645,1.9657,1.967,1.9685,1.9693,0,0,1.9688,1.9679,1.9689,1.9665,1.9676,1.9642,1.9656,1.9639,1.9625,1.9622,1.9622,1.9648,1.9658,1.9671,1.9731,1.9737,0,0,0,1.9703,1.971,1.971,1.9707,1.9696,1.9686,1.9666,1.9659,1.9656,1.9626,1.9655,1.9661,1.9668,1.9675,1.968,1.9685,1.9622,1.9622,1.9622,1.9766,1.9748,1.9762,1.9742,1.974,1.9719,1.9716,1.9704,1.9685,1.9692,1.9691,1.973,1.9738,1.9742,1.9748,1.9697,1.9697,1.9698,1.9698,1.981,1.9817,1.9793,1.9798,1.9778,1.9782,1.9762,1.9749,1.9749,1.9729,1.9734,1.9713,1.9749,1.9753,1.97,1.9699,1.9699,1.9699,1.9699,1.985,1.985,1.9843,1.9838,1.9837,1.9815,1.9817,1.9798,1.9781,1.9786,1.9783,1.9783,1.978,1.9786,1.9786,1.9786,1.9786,1.9786,1.9787,1.9894,1.9885,1.9889,1.9879,1.9875,1.9868,1.9847,1.9843,1.9834,1.982,1.982,1.9801,1.9756,1.9746,1.9789,1.9788,1.9788,1.9788,1.9788,1.9945,1.9931,1.9938,1.9935,1.9921,1.9921,1.9897,1.989,1.9884,1.9886,1.9865,1.9835,1.9825,1.9821,1.9812,1.9869,1.9869,1.9869,1.9869,1.9979,1.9973,1.9976,1.9972,1.9965,1.9945,1.9953,1.9937,1.9918,1.9913,1.9902,1.9889,1.9885,1.9877,1.9871,1.9863,1.9932,1.9932,1.9932,2.001,2.0002,2.0013,1.9995,1.9983,1.9973,1.998,1.9976,1.9951,1.9934,1.9909,1.9906,1.9884,1.9878,1.9861,1.9853,1.9837,0,0]},{"header":{"parameterUnit":"m.s-1","parameterCategory":1,"la1":30.2992,"la2":30.254,"lo1":-89.0895,"lo2":-89.0443,"dy":0.0025,"dx":0.0025,"nx":19,"ny":19,"refTime":"2026-03-08T09:00:00:Z","depth":0,"parameterNumber":3,"parameterNumberName":"V-component_of_WINDS"},"data":[0,0,0,2.8406,2.8409,2.8574,2.8575,2.8767,2.8769,0,0,0,0,0,0,0,0,0,0,0,2.8346,2.8347,2.8405,2.8409,2.8574,2.8575,2.8767,2.8769,0,0,0,0,0,0,0,0,0,0,0,2.8345,2.8346,2.8348,2.841,2.8574,2.8575,2.8766,2.8648,0,0,0,0,0,0,0,0,0,0,2.8491,2.8425,2.8346,2.8348,2.8411,2.8574,2.8575,2.8643,2.8656,2.8684,0,2.8707,0,2.8741,2.878,2.8781,0,0,0,2.8417,2.8415,2.8469,2.8348,2.8412,2.8574,2.8502,2.865,2.8665,2.8701,2.871,2.8718,2.8744,2.8782,2.8782,2.8921,2.8922,0,0,2.8408,2.8369,2.8459,2.8478,2.8452,2.8497,2.8507,2.8659,2.8667,2.8711,2.8723,2.8747,2.8783,2.8784,2.8921,2.8922,0,0,0,2.8376,2.8362,2.8414,2.847,2.8501,2.8501,2.8513,2.866,2.868,2.8725,2.875,2.8784,2.8786,2.8921,2.8921,2.8898,0,0,0,2.8371,2.8344,2.8409,2.8387,2.8498,2.8583,2.851,2.8669,2.8688,2.8749,2.8784,2.8788,2.8921,2.8921,2.8898,2.8894,0,0,0,2.8339,2.8341,2.8361,2.8385,2.8455,2.8581,2.861,2.8674,2.8702,2.8781,2.8788,2.8921,2.8921,2.8898,2.8894,2.892,0,0,0,2.8292,2.8337,2.836,2.8419,2.8453,2.8566,2.861,2.8695,2.876,2.8785,2.8921,2.8921,2.8898,2.8894,2.8919,2.8935,2.8937,0,0,2.8327,2.834,2.8378,2.8403,2.8502,2.8543,2.8639,2.8734,2.8776,2.887,2.8874,2.8898,2.8894,2.892,2.8964,2.8966,0,0,0,2.8376,2.8403,2.8438,2.8498,2.8573,2.8636,2.8721,2.8756,2.8838,2.8817,2.8915,2.8914,2.8931,2.894,2.8941,2.8958,2.8924,2.8924,2.8924,2.837,2.8423,2.849,2.8562,2.862,2.8707,2.8759,2.8821,2.8857,2.8879,2.8907,2.8928,2.8937,2.8939,2.8955,2.8919,2.8919,2.8919,2.8919,2.8427,2.8474,2.852,2.8602,2.8657,2.8725,2.8811,2.8834,2.8905,2.8911,2.8928,2.893,2.8939,2.8956,2.8918,2.8918,2.8918,2.8918,2.8918,2.8429,2.8461,2.8504,2.8597,2.8662,2.8733,2.88,2.8848,2.8892,2.8909,2.8945,2.8945,2.8952,2.8923,2.8923,2.8923,2.8923,2.8923,2.8923,2.8415,2.8464,2.8515,2.8598,2.8643,2.8709,2.8797,2.8842,2.8905,2.8934,2.8934,2.8967,2.893,2.892,2.8924,2.8924,2.8924,2.8924,2.8924,2.8454,2.8453,2.8531,2.8577,2.8678,2.874,2.88,2.8888,2.8932,2.8964,2.8994,2.8958,2.8974,2.8973,2.8965,2.8982,2.8982,2.8982,2.8982,2.8456,2.8469,2.8561,2.863,2.8703,2.8765,2.8852,2.8921,2.8991,2.9022,2.9026,2.902,2.9016,2.9035,2.9032,2.9026,2.9057,2.9057,2.9057,2.8483,2.8505,2.8571,2.8641,2.8724,2.8793,2.8877,2.8954,2.9033,2.9061,2.9047,2.9044,2.9034,2.9027,2.9055,2.905,2.9039,0,0]}]]